Meadow Lake, CO

1:26 AM MDT on April 27, 2017 (GMT -0600)
Meadow Lake

Weather History for KFLY - March, 2012

Change the Weather History Date:

Saturday, March 10, 2012

  Actual Average (KCOS) Record (KCOS)
Temperature  
Mean Temperature 42 °F -  
Max Temperature 55 °F 50 °F 78 °F (1989)
Min Temperature 28 °F 26 °F 0 °F (1932)
Degree Days  
Heating Degree Days 24    
Moisture  
Dew Point 21 °F    
Average Humidity 47    
Maximum Humidity 93    
Minimum Humidity 24    
Precipitation  
Precipitation 0.00 in - - ()
Sea Level Pressure  
Sea Level Pressure 30.09 in    
Wind  
Wind Speed 9 mph (South)    
Max Wind Speed 25 mph    
Max Gust Speed 30 mph    
Visibility 10 miles    
Events      
Averages and records for this station are not official NWS values.
T = Trace of Precipitation, MM = Missing Value Source: NWS Daily Summary

Daily Weather History Graph

Daily Weather History Graph

Search for Another Location

Airport or City:

Trip Planner

Search our weather history database for the weather conditions in past years. The results will help you decide how hot, cold, wet, or windy it might be!

Date:

Astronomy

Mar. 10, 2012 Rise Set
Actual Time 6:16 AM MST 6:00 PM MST
Civil Twilight 5:49 AM MST 6:27 PM MST
Nautical Twilight 5:19 AM MST 6:58 PM MST
Astronomical Twilight 4:47 AM MST 7:29 PM MST
Moon 9:13 PM MST (3/10) 7:15 AM MST (3/10)
Length of Visible Light 12h 37m
Length of Day
11h 44m
Waning Gibbous, 92% of the Moon is Illuminated
Mar 10
Waning Gibbous
Mar 14
Last Quarter
Mar 22
New
Mar 30
First Quarter
Apr 6
Full

Hourly Weather History & Observations

Time (MST) Temp. Windchill Dew Point Humidity Pressure Visibility Wind Dir Wind Speed Gust Speed Precip Events Conditions
12:18 AM 28.9 °F 21.1 °F 12.2 °F 50% 30.24 in 10.0 mi SW 8.1 mph - N/A   Clear
12:38 AM 29.3 °F 20.8 °F 12.4 °F 49% 30.24 in 10.0 mi WSW 9.2 mph - N/A   Clear
12:58 AM 30.0 °F 22.4 °F 12.2 °F 48% 30.23 in 10.0 mi West 8.1 mph - N/A   Clear
1:17 AM 30.0 °F 22.4 °F 12.2 °F 48% 30.22 in 10.0 mi West 8.1 mph - N/A   Clear
1:36 AM 30.0 °F 22.4 °F 12.2 °F 48% 30.22 in 10.0 mi West 8.1 mph - N/A   Clear
1:57 AM 31.3 °F 23.9 °F 11.7 °F 44% 30.20 in 10.0 mi West 8.1 mph - N/A   Clear
2:16 AM 31.5 °F 24.2 °F 11.8 °F 44% 30.20 in 10.0 mi WSW 8.1 mph - N/A   Clear
2:36 AM 30.9 °F 23.5 °F 12.2 °F 46% 30.19 in 10.0 mi WSW 8.1 mph - N/A   Clear
2:56 AM 32.4 °F 25.3 °F 12.0 °F 43% 30.17 in 10.0 mi WSW 8.1 mph - N/A   Clear
3:16 AM 32.9 °F 26.7 °F 12.0 °F 42% 30.16 in 10.0 mi West 6.9 mph - N/A   Clear
3:36 AM 32.9 °F 27.5 °F 11.8 °F 42% 30.16 in 10.0 mi WSW 5.8 mph - N/A   Clear
3:56 AM 34.0 °F 28.8 °F 11.3 °F 39% 30.16 in 10.0 mi SSW 5.8 mph - N/A   Clear
4:16 AM 34.0 °F 28.0 °F 11.3 °F 39% 30.15 in 10.0 mi SSW 6.9 mph - N/A   Clear
4:36 AM 32.4 °F 29.1 °F 12.0 °F 43% 30.14 in 10.0 mi SSW 3.5 mph - N/A   Clear
4:56 AM 32.5 °F 28.1 °F 12.9 °F 44% 30.15 in 10.0 mi SW 4.6 mph - N/A   Clear
5:16 AM 29.8 °F 24.9 °F 13.3 °F 50% 30.14 in 10.0 mi WSW 4.6 mph - N/A   Clear
5:36 AM 30.7 °F - 13.3 °F 48% 30.14 in 10.0 mi Calm Calm - N/A   Clear
5:56 AM 28.4 °F 24.6 °F 13.5 °F 54% 30.13 in 10.0 mi WSW 3.5 mph - N/A   Clear
6:16 AM 28.8 °F 25.0 °F 13.3 °F 52% 30.13 in 10.0 mi SW 3.5 mph - N/A   Clear
6:36 AM 29.7 °F 26.1 °F 14.0 °F 52% 30.13 in 10.0 mi West 3.5 mph - N/A   Clear
6:56 AM 31.6 °F - 14.4 °F 49% 30.13 in 10.0 mi Calm Calm - N/A   Clear
7:16 AM 34.9 °F - 15.3 °F 45% 30.13 in 10.0 mi Calm Calm - N/A   Clear
7:56 AM 39.9 °F - 13.3 °F 34% 30.13 in 10.0 mi Calm Calm - N/A   Clear
8:16 AM 41.0 °F 39.0 °F 12.6 °F 31% 30.13 in 10.0 mi SE 3.5 mph - N/A   Clear
8:36 AM 43.2 °F 40.5 °F 11.8 °F 28% 30.13 in 10.0 mi SE 4.6 mph - N/A   Clear
8:56 AM 44.2 °F 39.7 °F 10.4 °F 25% 30.13 in 10.0 mi SSE 8.1 mph - N/A   Clear
9:16 AM 45.5 °F 39.9 °F 9.9 °F 24% 30.14 in 10.0 mi SSE 11.5 mph - N/A   Clear
9:36 AM 45.1 °F 40.3 °F 11.1 °F 25% 30.14 in 10.0 mi SSE 9.2 mph - N/A   Clear
9:56 AM 47.8 °F - 13.5 °F 25% 30.13 in 10.0 mi South 15.0 mph 23.0 mph N/A   Clear
10:16 AM 48.7 °F - 16.0 °F 27% 30.13 in 10.0 mi South 13.8 mph 26.5 mph N/A   Clear
10:36 AM 49.6 °F - 24.1 °F 37% 30.13 in 10.0 mi South 15.0 mph 25.3 mph N/A   Clear
10:56 AM 50.0 °F - 23.4 °F 35% 30.12 in 10.0 mi SSW 16.1 mph 25.3 mph N/A   Clear
11:16 AM 50.5 °F - 23.5 °F 35% 30.12 in 10.0 mi South 16.1 mph 23.0 mph N/A   Mostly Cloudy
11:36 AM 50.9 °F - 26.4 °F 39% 30.10 in 10.0 mi South 19.6 mph 25.3 mph N/A   Scattered Clouds
11:56 AM 51.1 °F - 28.2 °F 41% 30.10 in 10.0 mi South 15.0 mph 26.5 mph N/A   Clear
12:16 PM 51.4 °F - 30.0 °F 44% 30.09 in 10.0 mi South 16.1 mph 25.3 mph N/A   Clear
12:36 PM 52.3 °F - 29.3 °F 41% 30.08 in 10.0 mi South 15.0 mph 23.0 mph N/A   Clear
12:56 PM 52.5 °F - 27.7 °F 38% 30.06 in 10.0 mi South 13.8 mph 20.7 mph N/A   Clear
1:16 PM 53.6 °F - 30.0 °F 41% 30.04 in 10.0 mi South 12.7 mph 21.9 mph N/A   Clear
1:56 PM 54.0 °F - 30.0 °F 40% 30.02 in 10.0 mi South 12.7 mph 20.7 mph N/A   Clear
2:16 PM 54.9 °F - 28.8 °F 37% 30.01 in 10.0 mi South 13.8 mph 27.6 mph N/A   Clear
2:36 PM 54.5 °F - 28.2 °F 36% 30.00 in 10.0 mi South 13.8 mph 25.3 mph N/A   Clear
2:56 PM 55.4 °F - 26.1 °F 32% 29.99 in 10.0 mi South 11.5 mph 21.9 mph N/A   Clear
3:16 PM 55.4 °F - 25.9 °F 32% 29.98 in 10.0 mi South 13.8 mph 28.8 mph N/A   Clear
3:36 PM 54.9 °F - 25.7 °F 32% 29.98 in 10.0 mi South 18.4 mph 24.2 mph N/A   Clear
3:56 PM 54.5 °F - 25.9 °F 33% 29.98 in 10.0 mi South 19.6 mph 25.3 mph N/A   Clear
4:16 PM 53.6 °F - 27.1 °F 36% 29.98 in 10.0 mi SSE 20.7 mph 28.8 mph N/A   Clear
4:36 PM 51.3 °F - 29.1 °F 43% 29.98 in 10.0 mi SSE 20.7 mph 25.3 mph N/A   Scattered Clouds
4:56 PM 48.7 °F - 31.3 °F 51% 29.98 in 10.0 mi SSE 25.3 mph 29.9 mph N/A   Clear
5:16 PM 43.5 °F 35.5 °F 36.0 °F 75% 29.98 in 10.0 mi SSE 18.4 mph 23.0 mph N/A   Clear
5:36 PM 42.8 °F 34.8 °F 35.6 °F 76% 29.98 in 10.0 mi SSE 17.3 mph 24.2 mph N/A   Clear
5:56 PM 41.7 °F 34.1 °F 35.2 °F 78% 29.98 in 10.0 mi SSE 15.0 mph 20.7 mph N/A   Clear
6:16 PM 40.1 °F 32.7 °F 35.1 °F 82% 29.97 in 10.0 mi SSE 12.7 mph - N/A   Clear
6:36 PM 38.7 °F 30.9 °F 35.6 °F 89% 29.97 in 10.0 mi SSE 12.7 mph - N/A   Clear
6:56 PM 38.7 °F 32.9 °F 36.0 °F 90% 29.98 in 10.0 mi SSE 8.1 mph - N/A   Mostly Cloudy
7:16 PM 38.7 °F 32.9 °F 36.5 °F 92% 29.97 in 10.0 mi SSE 8.1 mph - N/A   Overcast
7:36 PM 38.3 °F 32.5 °F 36.5 °F 93% 29.97 in 10.0 mi SSE 8.1 mph - N/A   Overcast
7:56 PM 38.7 °F 32.4 °F 36.7 °F 93% 29.97 in 10.0 mi SSE 9.2 mph - N/A   Overcast
8:16 PM 38.3 °F 33.2 °F 36.5 °F 93% 29.96 in 10.0 mi SSE 6.9 mph - N/A   Overcast
8:56 PM 37.4 °F 29.8 °F 36.3 °F 96% 29.96 in 10.0 mi SSE 11.5 mph - N/A   Overcast
9:16 PM 36.7 °F 31.2 °F 35.8 °F 97% 29.96 in 2.5 mi SSE 6.9 mph - N/A   Overcast
9:36 PM 36.1 °F 31.4 °F 35.6 °F 98% 29.95 in 0.2 mi SSE 5.8 mph - N/A Fog Fog
9:56 PM 36.3 °F 32.5 °F 35.6 °F 97% 29.94 in 0.2 mi SSE 4.6 mph - N/A Fog Fog
10:16 PM 35.6 °F 30.7 °F 35.2 °F 99% 29.94 in 0.2 mi SSE 5.8 mph - N/A Snow Light Snow
10:56 PM 35.2 °F 29.5 °F 34.9 °F 99% 29.93 in 0.2 mi SE 6.9 mph - N/A Snow Light Snow
11:36 PM 33.6 °F 30.6 °F 33.3 °F 99% 29.90 in 0.2 mi SE 3.5 mph - N/A Snow Light Snow
11:56 PM 33.6 °F 29.4 °F 33.1 °F 98% 29.89 in 0.2 mi SSE 4.6 mph - N/A Snow Light Snow